Theta_e
324 323 323 322 322 321 320 321 321 321 321 321 322 322 321 321 320 319 318 317 315 313 312 312 312 312 311 311 312 312 312 315 316 317 318 318 318 317 317 318 318 317
325 324 323 323 322 322 321 321 321 321 322 322 322 321 321 321 321 321 320 319 318 315 314 313 312 311 311 310 311 310 309 311 314 314 315 315 315 315 316 316 316 316
326 325 324 324 323 323 322 321 321 321 321 322 322 323 322 322 322 322 321 321 320 318 317 315 314 312 311 310 312 312 310 310 311 312 312 313 313 314 315 315 315 315
326 325 325 324 323 323 323 322 322 322 322 322 322 323 323 323 323 323 322 322 321 321 320 318 316 315 313 311 312 312 312 311 310 311 312 312 312 313 314 315 315 314
327 326 325 324 323 323 323 322 322 322 322 322 323 322 323 323 324 323 322 323 322 322 321 320 318 317 316 314 313 313 313 312 311 311 312 311 311 312 311 313 313 312
328 327 326 325 324 323 323 323 322 322 321 322 322 323 323 323 324 323 322 323 322 322 322 322 320 319 318 317 315 315 315 314 313 312 311 310 311 311 310 311 311 311
328 328 327 326 324 324 324 324 323 322 322 321 322 322 323 323 323 323 323 322 322 322 322 322 321 320 320 319 318 317 316 316 315 314 312 310 310 311 311 310 309 309
328 328 328 327 325 324 325 324 323 322 322 322 322 322 322 323 323 322 323 323 322 322 322 322 322 321 321 320 320 319 318 317 317 316 315 313 311 311 311 310 309 309
327 327 328 328 326 326 326 325 324 324 323 323 323 322 322 322 322 321 322 322 322 322 322 322 322 322 322 322 321 321 321 319 318 318 317 316 315 314 312 311 311 311
327 327 327 327 327 326 327 326 325 324 324 324 323 322 322 322 322 321 321 322 323 323 322 322 322 323 323 322 322 322 322 322 320 319 319 318 317 317 315 313 313 313
328 327 326 325 325 325 326 327 326 325 325 324 323 322 322 322 322 321 321 321 322 323 322 322 322 323 323 323 323 323 322 322 322 321 320 319 319 319 318 317 316 316
327 326 325 324 324 324 325 326 327 327 326 325 324 322 323 323 322 322 320 320 321 322 322 322 322 322 323 322 323 323 322 323 323 322 321 321 321 320 319 319 319 318
327 326 325 324 323 323 324 325 326 326 326 325 324 323 323 323 323 322 321 321 321 321 321 322 321 322 322 322 322 322 322 322 323 323 322 322 321 321 321 320 320 320
328 327 326 325 323 323 324 325 325 325 325 325 325 324 323 323 322 323 322 321 321 320 321 321 322 321 321 322 322 322 322 322 323 323 323 322 322 322 321 321 321 320
328 328 328 326 325 324 325 324 324 324 324 324 325 325 324 323 323 322 322 322 322 321 320 321 321 321 321 321 322 322 322 322 322 322 323 322 322 322 322 322 321 321
330 329 329 327 326 326 326 325 324 324 324 324 324 324 324 324 323 323 322 322 322 322 321 321 321 321 321 321 322 322 321 321 322 322 322 322 322 322 322 322 322 322
330 330 329 328 327 327 326 325 325 325 325 324 324 324 324 324 324 323 323 322 322 322 322 321 321 321 321 322 322 321 319 320 321 322 322 322 322 322 323 323 322 322
330 330 329 329 329 328 327 326 326 325 325 325 325 324 323 322 323 323 324 323 323 323 322 322 322 322 322 322 322 320 318 318 320 321 322 323 322 322 322 322 322 322
330 330 329 330 329 329 328 327 327 326 326 326 325 324 322 321 321 322 323 323 323 323 323 323 323 323 323 323 322 320 318 317 318 320 321 322 322 322 322 322 322 322
331 330 331 330 329 329 328 328 328 327 327 326 326 324 323 322 321 321 321 322 323 323 323 324 323 323 323 324 324 322 320 319 318 320 321 322 322 322 322 322 322 322
331 330 331 330 330 330 329 329 328 328 327 327 326 325 325 324 322 322 322 322 322 322 323 323 323 323 323 324 324 323 322 321 319 320 321 322 322 322 322 322 323 323
331 330 330 330 330 330 330 329 328 328 328 327 326 326 325 324 323 323 323 322 322 322 323 323 323 323 323 323 323 322 322 321 320 320 322 322 322 323 323 323 323 323
330 330 330 330 329 329 329 329 329 328 327 327 327 326 325 324 324 324 324 322 321 321 323 323 323 323 323 322 323 322 321 320 320 321 322 322 323 323 323 323 323 324
329 329 329 329 329 328 328 328 328 328 327 327 327 326 326 325 325 325 324 323 322 322 322 322 321 321 321 321 322 321 320 320 320 320 321 322 323 323 323 323 324 324
326 327 328 328 328 328 328 328 328 327 327 326 326 326 325 325 325 325 324 324 323 322 321 321 320 320 320 320 320 320 320 319 319 319 321 322 322 323 324 324 324 325
322 322 324 325 326 326 327 327 327 327 327 326 326 326 325 325 325 325 325 324 323 322 322 321 321 320 320 320 320 320 320 319 319 319 320 321 322 323 323 324 324 324
Wind_Speed
16 15 14 13 14 13 13 13 13 13 12 11 9 9 8 7 6 6 6 6 7 8 8 7 8 7 8 8 9 10 11 11 12 12 12 13 13 14 14 14 14 14
17 16 15 14 14 14 14 14 14 14 13 12 11 10 9 8 7 7 7 7 7 7 8 8 8 8 8 8 8 8 9 10 11 11 11 12 13 13 13 13 13 13
18 17 17 16 15 15 15 15 15 15 14 13 13 12 10 9 9 9 8 8 8 8 8 9 8 8 8 8 7 7 8 9 10 10 10 11 11 12 12 12 12 12
19 19 18 18 17 16 16 16 16 16 16 15 14 14 12 11 11 11 10 10 10 9 9 9 9 9 9 8 8 8 8 8 9 9 9 9 10 10 11 11 11 12
19 20 19 19 18 17 17 17 17 17 17 17 16 15 15 13 12 12 12 12 12 11 11 11 11 10 10 9 9 9 8 9 9 9 9 9 9 10 10 10 11 12
19 20 20 20 19 18 18 18 18 18 17 17 17 17 17 16 14 14 14 13 13 13 12 12 12 12 11 11 11 10 10 9 9 10 10 10 10 10 10 10 11 12
19 20 20 20 19 19 19 20 19 19 18 18 18 18 18 17 16 16 16 16 15 15 14 14 13 13 13 12 12 12 11 11 10 11 11 11 10 10 10 11 11 12
19 19 19 20 20 20 20 21 20 20 19 18 18 18 18 19 19 18 18 18 17 17 16 15 15 15 14 14 14 13 13 13 12 12 12 11 11 12 12 12 12 13
23 19 17 18 19 20 21 22 22 21 20 20 20 19 19 20 20 20 20 20 20 19 18 17 17 16 15 16 16 15 15 14 14 14 13 13 13 13 13 13 13 14
21 17 16 18 19 20 21 23 22 21 21 21 20 20 20 20 21 21 21 21 21 21 20 19 18 17 16 17 17 17 16 16 15 15 15 15 15 14 14 14 14 15
18 17 22 26 26 25 23 21 21 21 21 21 21 21 21 20 20 21 22 22 22 22 21 21 20 18 17 18 18 18 18 18 17 16 16 16 16 16 16 15 15 16
17 21 28 29 29 30 25 20 20 21 21 22 22 22 22 22 21 21 22 23 23 23 22 22 21 20 20 19 19 19 19 19 18 17 17 17 17 17 17 17 17 17
16 22 26 27 28 30 25 21 20 20 21 22 23 23 23 23 23 22 22 22 23 24 24 23 23 22 22 21 20 19 19 19 19 19 19 18 18 18 18 18 18 18
16 20 22 23 25 26 24 22 21 20 22 22 22 23 24 23 24 23 22 22 22 24 24 24 24 24 24 23 21 20 20 20 19 19 20 20 20 20 20 20 20 20
14 17 18 19 20 21 22 23 22 22 22 21 22 23 23 23 24 24 23 22 22 23 23 24 25 26 26 25 23 21 21 21 21 21 21 21 21 21 21 21 21 21
12 14 15 16 17 19 20 21 21 21 20 21 22 22 22 22 23 23 24 23 23 23 23 23 25 26 26 26 25 24 23 22 23 23 23 22 22 22 22 22 23 24
11 12 13 13 14 16 17 18 19 18 19 19 20 20 20 20 20 21 23 24 24 24 24 24 25 25 25 27 29 30 28 26 25 24 24 24 24 23 23 23 23 24
9 10 11 11 12 13 14 15 16 17 17 17 17 18 19 19 19 20 21 22 23 24 25 25 25 25 25 28 30 32 32 30 28 26 25 25 25 25 25 24 24 24
8 10 11 11 11 11 12 13 14 15 16 16 18 20 20 21 21 21 20 21 21 22 23 24 25 25 26 29 32 33 33 32 31 29 27 27 27 27 27 27 26 25
8 9 10 9 9 9 10 12 13 14 16 15 16 18 18 20 23 24 23 21 20 20 21 21 23 24 25 27 30 31 32 32 33 32 29 28 29 29 29 29 29 28
8 8 9 8 8 8 9 11 12 13 14 14 14 15 16 17 19 20 20 20 19 19 19 21 22 23 23 25 26 28 29 30 32 32 28 27 29 30 30 30 29 30
9 9 9 8 8 8 9 10 11 11 12 11 12 13 14 14 15 15 16 18 19 18 19 20 21 20 21 23 25 27 28 28 30 29 26 26 28 29 30 30 30 30
10 9 9 8 8 9 9 10 10 10 10 8 8 10 10 11 13 14 14 16 17 17 17 18 19 18 17 19 21 23 25 26 25 23 23 24 26 28 28 29 29 30
12 11 10 8 7 8 9 9 10 10 9 7 7 8 9 10 13 13 13 14 14 16 16 17 18 18 17 17 18 19 21 22 21 20 22 23 24 25 26 27 28 29
13 13 12 11 10 9 8 8 9 9 8 7 6 7 8 9 11 12 12 12 12 14 17 18 19 20 21 21 20 19 20 20 19 19 20 22 23 23 24 24 25 26
14 14 13 14 14 13 11 10 9 9 8 7 7 7 7 8 9 10 11 12 11 12 13 15 15 16 17 18 18 18 18 18 18 19 19 21 23 22 22 23 23 22
Wind_Direction
217 220 224 226 225 228 230 228 225 225 229 231 233 237 234 230 228 222 221 223 222 224 227 229 230 234 237 240 242 241 240 240 242 244 245 244 243 243 243 240 237 238
218 220 223 225 224 225 229 230 229 228 229 231 233 234 233 229 225 223 223 226 226 224 224 225 228 230 234 238 240 240 240 241 242 242 243 244 243 243 242 240 238 236
218 220 222 224 225 226 227 229 231 232 233 233 233 232 231 228 225 223 224 227 229 228 224 224 225 226 229 232 234 237 239 242 242 241 242 241 239 240 240 239 238 236
218 220 222 225 226 227 229 229 231 233 234 236 235 234 233 231 228 225 224 226 229 230 228 226 225 225 226 226 227 231 236 240 240 236 237 237 234 236 240 239 238 237
221 221 224 227 228 228 228 229 231 232 234 237 237 237 237 235 232 230 228 227 228 231 230 229 227 226 226 224 224 227 231 234 234 230 232 234 232 233 235 236 238 238
222 221 224 227 228 228 227 229 232 233 236 237 238 238 238 237 236 235 234 231 231 233 232 231 229 226 226 224 224 226 228 230 229 228 230 233 233 232 232 234 237 237
226 224 224 226 228 229 229 230 232 235 236 237 237 237 237 238 238 236 235 235 236 236 235 235 233 228 226 224 225 227 228 230 231 229 232 234 233 233 233 234 236 238
227 227 227 228 228 228 229 230 232 233 234 235 236 236 236 237 238 238 237 236 238 238 238 239 237 233 228 225 227 229 228 230 231 231 233 234 233 234 235 233 233 237
226 227 231 234 233 231 230 231 232 233 233 233 234 234 236 238 239 240 238 237 238 239 239 240 240 237 230 227 229 231 231 231 230 230 232 233 234 235 235 234 231 233
227 230 238 242 240 237 234 233 233 234 234 235 236 236 237 238 239 239 239 239 239 239 240 241 241 239 232 229 231 233 234 235 232 230 231 232 235 238 237 235 232 232
221 223 231 233 233 235 236 235 235 235 234 236 239 240 239 239 239 239 240 240 239 239 240 240 241 240 237 233 233 234 235 237 236 234 233 234 235 238 239 239 236 235
217 222 231 232 233 236 237 237 238 236 235 236 238 240 241 240 241 242 242 242 241 240 240 241 241 241 241 239 238 237 236 236 238 237 237 238 239 239 240 239 239 238
218 230 238 239 239 241 239 238 240 239 239 239 239 240 240 240 242 244 245 245 244 242 241 242 243 243 243 243 243 242 239 238 239 238 239 241 241 243 243 241 241 241
223 233 240 241 242 242 239 238 240 240 240 242 242 241 239 239 242 244 247 247 246 245 243 242 244 244 244 244 245 245 244 243 242 241 243 245 246 247 246 245 244 242
235 235 237 239 237 236 235 236 238 238 240 242 244 242 240 239 241 244 248 249 248 247 245 243 244 245 246 246 245 245 246 247 247 247 248 249 251 252 251 250 248 247
251 243 242 240 234 230 232 234 236 238 239 240 241 241 240 241 242 243 245 247 249 250 248 246 246 247 247 246 244 246 252 253 252 252 253 253 254 254 255 254 253 252
259 253 252 250 243 238 236 235 236 237 238 239 240 239 239 241 245 246 245 245 247 249 250 250 249 248 247 245 245 250 255 256 255 254 254 254 255 255 255 255 255 256
270 264 262 261 257 253 248 245 242 240 240 240 239 238 237 240 245 249 249 249 249 250 251 250 250 249 245 245 249 254 256 256 255 255 255 255 255 256 256 256 257 257
282 273 270 268 264 261 259 256 253 249 248 243 240 243 245 244 245 246 250 252 252 251 251 251 252 251 249 249 251 255 257 256 254 253 254 256 257 257 258 258 259 259
293 285 281 278 273 268 264 260 258 257 256 251 247 249 248 244 244 248 250 251 250 252 256 258 258 258 258 256 255 256 258 257 255 253 253 255 258 258 260 260 260 260
314 304 299 295 290 282 271 262 258 259 261 260 257 257 253 247 248 251 251 249 250 255 260 261 262 262 261 259 259 261 262 261 258 255 253 256 259 259 260 261 260 260
336 326 319 315 311 300 288 279 274 272 272 268 264 264 262 258 257 255 250 249 252 258 262 263 265 266 265 264 264 265 266 263 259 256 254 255 259 259 260 261 260 260
351 344 338 334 331 324 321 322 320 314 308 293 276 272 270 267 266 263 259 258 256 253 255 260 265 267 270 271 271 272 271 264 257 256 257 256 257 258 259 260 260 258
357 353 349 347 342 336 336 336 332 328 328 320 297 288 284 278 276 274 271 270 265 261 262 263 265 269 274 275 274 276 276 269 261 261 262 260 258 259 259 259 259 258
5 360 358 356 351 347 344 337 331 327 326 321 304 293 284 278 281 286 286 283 280 282 283 279 276 278 282 284 284 282 279 274 267 263 263 265 265 264 262 261 260 261
14 11 11 9 4 2 4 2 353 341 334 328 318 309 305 305 310 311 306 303 303 305 303 296 291 291 290 290 289 284 280 277 267 259 261 268 270 271 270 268 268 267